Weather History for Cairo, Egypt

Change the Weather History Date:

Monday, December 3, 2012

  Actual Average Record
Temperature  
Mean Temperature 70 °F -  
Max Temperature 81 °F 66 °F 82 °F (2005)
Min Temperature 59 °F 50 °F 46 °F (1999)
Cooling Degree Days 5    
Growing Degree Days 20 (Base 50)    
Moisture  
Dew Point 45 °F    
Average Humidity 42    
Maximum Humidity 63    
Minimum Humidity 14    
Precipitation  
Precipitation 0.00 in 0.01 in - ()
Sea Level Pressure  
Sea Level Pressure 29.98 in    
Wind  
Wind Speed 4 mph ()    
Max Wind Speed 10 mph    
Max Gust Speed -    
Visibility 2.8 miles    
Events      
Averages and records for this station are not official NWS values.
T = Trace of Precipitation, MM = Missing Value Source: Averaged Metar Reports

Daily Weather History Graph

Daily Weather History Graph

Search for Another Location

Airport:

Trip Planner

Search our weather history database for the weather conditions in past years. The results will help you decide how hot, cold, wet, or windy it might be!

Date:

Astronomy

Dec. 03, 2012 Rise Set
Actual Time 6:34 AM EET 4:53 PM EET
Civil Twilight 6:08 AM EET 5:19 PM EET
Nautical Twilight 5:38 AM EET 5:49 PM EET
Astronomical Twilight 5:09 AM EET 6:18 PM EET
Moon 9:10 PM EET (12/3) 9:55 AM EET (12/3)
Length of Visible Light 11h 11m
Length of Day
10h 19m
Waning Gibbous, 80% of the Moon is Illuminated
Dec 3
Waning Gibbous
Dec 6
Last Quarter
Dec 13
New
Dec 20
First Quarter
Dec 28
Full

Hourly Weather History & Observations

Time (EET) Temp. Dew Point Humidity Pressure Visibility Wind Dir Wind Speed Gust Speed Precip Events Conditions
12:00 AM 66.2 °F 50.0 °F 56% 30.04 in - NNW 1.2 mph - N/A   Clear
12:30 AM 66.2 °F 50.0 °F 56% 30.04 in - NNW 1.2 mph - N/A   Clear
1:00 AM 62.6 °F 50.0 °F 63% 30.04 in - ENE 3.5 mph - N/A   Clear
1:30 AM 62.6 °F 50.0 °F 63% 30.04 in - Calm Calm - N/A   Clear
2:00 AM 61 °F 48 °F 51% 30.05 in 6 mi NE 2.3 mph - -  
2:00 AM 60.8 °F 48.2 °F 63% 30.04 in - NE 2.3 mph - N/A   Clear
2:30 AM 60.8 °F 48.2 °F 63% 30.01 in - ESE 2.3 mph - N/A   Clear
3:00 AM 62.6 °F 44.6 °F 52% 30.01 in - South 2.3 mph - N/A   Clear
3:30 AM 62.6 °F 46.4 °F 55% 30.01 in - SSW 3.5 mph - N/A   Clear
4:00 AM 62.6 °F 46.4 °F 55% 29.98 in - SSW 3.5 mph - N/A   Clear
4:30 AM 60.8 °F 42.8 °F 52% 29.98 in - WSW 1.2 mph - N/A   Clear
5:00 AM 59.0 °F 42.8 °F 55% 29.98 in - SSW 1.2 mph - N/A   Clear
5:30 AM 59.0 °F 42.8 °F 55% 29.98 in - SSW 1.2 mph - N/A   Clear
6:00 AM 60.8 °F 46.4 °F 59% 29.98 in - SSW 4.6 mph - N/A   Clear
6:30 AM 59.0 °F 46.4 °F 63% 30.01 in - SSW 4.6 mph - N/A   Clear
7:00 AM 59.0 °F 46.4 °F 63% 30.01 in - South 3.5 mph - N/A   Clear
7:30 AM 62.6 °F 46.4 °F 55% 30.01 in - WSW 3.5 mph - N/A   Clear
8:00 AM 64 °F 49 °F 48% 30.04 in 4 mi WSW 2.3 mph - -   Haze
8:00 AM 64.4 °F 48.2 °F 56% 30.01 in 3.7 mi WSW 2.3 mph - N/A   Unknown
8:30 AM 68.0 °F 48.2 °F 49% 30.01 in 2.5 mi SW 2.3 mph - N/A   Haze
9:00 AM 69.8 °F 44.6 °F 40% 30.01 in 1.9 mi SW 5.8 mph - N/A   Haze
9:30 AM 73.4 °F 41.0 °F 31% 30.04 in 2.5 mi SW 8.1 mph - N/A   Haze
10:00 AM 73.4 °F 41.0 °F 31% 30.01 in 2.5 mi SSW 9.2 mph - N/A   Haze
10:30 AM 75.2 °F 41.0 °F 29% 30.01 in 2.5 mi SSW 10.4 mph - N/A   Haze
11:00 AM 75.2 °F 39.2 °F 27% 30.01 in 2.5 mi SSW 9.2 mph - N/A   Haze
11:30 AM 75.2 °F 41.0 °F 29% 30.01 in 2.5 mi WSW 10.4 mph - N/A   Haze
12:00 PM 75.2 °F 42.8 °F 31% 30.01 in 1.9 mi WSW 10.4 mph - N/A   Haze
12:30 PM 77.0 °F 41.0 °F 28% 29.98 in 1.9 mi WSW 9.2 mph - N/A   Haze
1:00 PM 77.0 °F 44.6 °F 32% 29.98 in 1.9 mi SW 6.9 mph - N/A   Haze
1:30 PM 78.8 °F 42.8 °F 28% 29.98 in 1.9 mi WSW 6.9 mph - N/A   Haze
2:00 PM 80 °F 39 °F 14% 29.96 in 2 mi WSW 4.6 mph - -   Haze
2:00 PM 80.6 °F 39.2 °F 23% 29.95 in 1.9 mi WSW 4.6 mph - N/A   Haze
2:30 PM 80.6 °F 41.0 °F 24% 29.95 in 1.9 mi WSW 3.5 mph - N/A   Haze
3:00 PM 80.6 °F 39.2 °F 23% 29.92 in 1.9 mi West 4.6 mph - N/A   Haze
3:30 PM 80.6 °F 41.0 °F 24% 29.95 in 1.9 mi NW 6.9 mph - N/A   Haze
4:00 PM 78.8 °F 42.8 °F 28% 29.95 in 1.9 mi NW 6.9 mph - N/A   Haze
4:30 PM 78.8 °F 42.8 °F 28% 29.95 in 1.9 mi NNW 9.2 mph - N/A   Haze
5:00 PM 77.0 °F 42.8 °F 29% 29.95 in 2.5 mi North 5.8 mph - N/A   Haze
5:30 PM 75.2 °F 44.6 °F 34% 29.95 in 2.5 mi North 5.8 mph - N/A   Haze
6:00 PM 75.2 °F 46.4 °F 36% 29.95 in 2.5 mi NNE 5.8 mph - N/A   Haze
6:27 PM 73.4 °F 46.4 °F 38% 29.95 in 2.5 mi NNE 6.9 mph - N/A   Haze
7:00 PM 73.4 °F 44.6 °F 36% 29.95 in 2.5 mi ENE 4.6 mph - N/A   Haze
7:30 PM 71.6 °F 46.4 °F 41% 29.95 in 2.5 mi East 6.9 mph - N/A   Haze
8:00 PM 72 °F 46 °F 29% 29.95 in 4 mi NW 8.1 mph - -   Haze
8:00 PM 71.6 °F 46.4 °F 41% 29.95 in 3.7 mi NW 8.1 mph - N/A   Unknown
8:30 PM 71.6 °F 46.4 °F 41% 29.95 in 3.7 mi ESE 3.5 mph - N/A   Unknown
9:00 PM 71.6 °F 46.4 °F 41% 29.95 in 3.7 mi NNE 1.2 mph - N/A   Unknown
9:30 PM 69.8 °F 46.4 °F 43% 29.95 in 3.7 mi South 3.5 mph - N/A   Unknown
10:00 PM 69.8 °F 46.4 °F 43% 29.92 in 3.7 mi SW 2.3 mph - N/A   Unknown
10:30 PM 71.6 °F 46.4 °F 41% 29.92 in 3.7 mi SE 2.3 mph - N/A   Unknown
11:00 PM 69.8 °F 46.4 °F 43% 29.92 in 3.7 mi SE 5.8 mph - N/A   Unknown
11:30 PM 69.8 °F 46.4 °F 43% 29.89 in 3.7 mi SSW 6.9 mph - N/A   Unknown